{"data":{"norad_id":56346,"epoch":"2026-09-20T22:00:03.000096Z","epoch_age_seconds":72779,"freshness":"FRESH","line1":"1 56346U 23058AF  26263.91670139  .00079269  00000+0  39226-2 0  9993","line2":"2 56346  97.2805 257.8381 0002323  68.3872 181.6978 15.17463133  5688","mean_motion":15.17463133,"eccentricity":0.0002323,"inclination_deg":97.2805,"raan_deg":257.8381,"arg_perigee_deg":68.3872,"mean_anomaly_deg":181.6978,"bstar":0.0039226,"rev_number":568,"period_min":94.895221418206,"perigee_km":511.90988603657,"apogee_km":515.1117456118,"semimajor_km":6891.6478158242,"source":"CELESTRAK","updated_at":"2026-09-21T09:00:33.406313Z"}}